Regional Weather Roundup
Issued by NWS

Home | Current Version | Previous Version | Text Only | Print | Product List | Glossary Off
Versions: 1 2 3 4 5 6 7 8 9 10 11 12 13 14 15 16 17 18 19 20 21 22 23 24 25 26 27 28 29 30 31 32 33 34 35 36 37 38 39 40 41 42 43 44 45 46 47 48 49 50

000
ASUS45 KCYS 212010
RWRWY

WYOMING REGIONAL WEATHER ROUNDUP
NATIONAL WEATHER SERVICE CHEYENNE WY
200 PM MDT TUE MAR 21 2017

NOTE:  "FAIR" INDICATES FEW OR NO CLOUDS BELOW 12,000 FEET
WITH NO SIGNIFICANT WEATHER AND/OR OBSTRUCTIONS TO VISIBILITY.

WYZ001-212100-
YELLOWSTONE NATIONAL PARK

CITY           SKY/WX    TMP DP  RH WIND       PRES   REMARKS
LK YELLOWSTONE   N/A     45  36  70 VRB3      30.06F
W YELLOWSTONE  NOT AVBL

$$
WYZ002>013-054>058-071-098>099-212100-
NORTHERN WYOMING

CITY           SKY/WX    TMP DP  RH WIND       PRES   REMARKS
JACKSON        MOSUNNY   46  37  71 CALM      30.02F
CODY           CLOUDY    42  36  79 SE7       30.07F
GREYBULL       PTSUNNY   46  37  71 NE6       30.07F
WORLAND        CLOUDY    46  39  76 CALM      30.06F
SHERIDAN       CLOUDY    42  37  82 SE12      30.10F
BUFFALO        FOG       40  37  89 S8        30.10F VSB<1/4 WCI  34
GILLETTE       CLOUDY    40  35  83 SE21      30.13F WCI  30
HULETT         CLOUDY    34  32  93 MISG      30.20F
NEWCASTLE      MOCLDY    41  30  65 SE20      30.20F

$$
WYZ014>020-022>026-101>103-212100-
CENTRAL WYOMING

CITY           SKY/WX    TMP DP  RH WIND       PRES   REMARKS
BIG PINEY      FAIR      48  38  68 VRB3      30.07F
PINEDALE       FAIR      46  34  61 SE6       30.09S
DUBOIS         MOCLDY    45  36  70 CALM      30.05F
LANDER         PTSUNNY   52  37  56 E6        30.03F
RIVERTON       FAIR      51  37  58 VRB3      30.05F
CASPER         FAIR      49  40  71 E8        30.07F
DOUGLAS        FAIR      51  36  56 SE16      30.10F

$$
WYZ021-027>030-104>119-212100-
SOUTHERN WYOMING

CITY           SKY/WX    TMP DP  RH WIND       PRES   REMARKS
EVANSTON       FAIR      56  24  29 SW17      30.04S
KEMMERER         N/A     50  32  50 N3        30.07F
FORT BRIDGER   FAIR      57  38  48 N8        30.08F
ROCK SPRINGS   FAIR      63  29  27 S12       30.04F
DIXON            N/A     65  28  25 W13G23    30.09F
RAWLINS        FAIR      65  26  23 SW21G31   30.06F
SARATOGA       FAIR      63  28  27 SW12G21   30.09F
LARAMIE        FAIR      58  31  35 E9        30.11S
CHEYENNE       LGT RAIN  49  34  56 S15G26    30.15F
TORRINGTON     FAIR      59  31  34 SE16G26   30.12F
PINE BLUFFS    MOCLDY    55  30  38 SE13G24   30.15F

$$



USA.gov is the U.S. government's official web portal to all federal, state and local government web resources and services.